Find Jilin-1 GaoFen 07B 04 xing

NORAD ID: 68696 Int'l Des: 2026-080 Owner: CGSTL Country: CN Constellation: jilin-1 operational
LEOCIRCULARRETROGRADESSO

实时位置

正在加载3D地球...

关于 Jilin-1 GaoFen 07B 04 xing

正在加载描述...

即将过境

Passes for default location (London). Set your location on the main map for personalized predictions.

高度历史

Loading altitude history...

两行轨道根数

1 68696U 26080F 26105.07427363 .00001014 00000-0 67432-4 0 9999
2 68696 97.6631 180.7184 0013605 281.1130 78.8569 15.09416186 104
Epoch: Apr 15, 2026 • Age: 29 hours

当前状态

高度 558.7 km
速度 7.58 km/s
星下点 67.16°N, 72.29°E
发射日期 Apr 14, 2026
运行时间 2 days
类型 other

技术详情

分类 Payload
质量 50.00 kg
干质量 50.00 kg
总质量 50.00 kg
长度 1.50 m
直径 1.00 m
跨度 1.50 m
形状 Box
制造商 CGSTL
平台类型 JL-1GF07
阶段状态 In Orbit
所有者/国家 CGSTL/CN

Most Searched